Lid_Strength_Index
7 8 8 8 8 8 8 8 7 8 8 7 7 6 5 6 5 5 5 5 5 5
9 9 9 9 8 9 9 9 9 9 9 9 9 8 8 6 7 6 5 5 5 6
10 10 10 10 11 11 11 10 10 11 10 10 9 8 8 8 8 8 7 7 7 6
10 10 11 11 12 12 12 11 12 12 12 11 11 10 10 9 9 9 8 8 8 8
13 12 12 12 13 13 13 12 12 12 13 13 13 13 12 12 11 11 12 11 10 10
14 15 16 15 15 15 15 15 15 14 14 14 14 13 13 12 12 12 12 12 11 11
14 15 15 15 15 15 15 15 15 15 15 14 14 13 13 13 13 13 12 12 11 11
14 14 14 15 14 14 14 14 14 13 13 13 12 11 12 11 11 12 13 13 13 12
14 15 15 15 15 15 15 15 15 15 14 15 13 10 9 10 12 12 12 12 11 11
14 14 14 15 15 16 16 16 16 16 15 15 14 10 10 9 12 12 12 12 12 12
14 15 14 15 15 15 14 14 15 15 15 15 14 11 10 10 13 13 13 13 13 14
14 15 15 15 16 15 15 15 14 13 13 13 13 10 10 11 13 14 14 13 14 13
14 15 16 16 16 15 15 14 13 13 13 11 13 10 9 10 11 12 12 12 12 11
15 16 16 16 16 15 14 14 14 14 14 13 12 12 9 9 11 12 12 12 12 12